Weather History for KGFK - March, 2013

Change the Weather History Date:

Friday, March 29, 2013

  Actual Average Record
Temperature  
Mean Temperature 26 °F 32 °F  
Max Temperature 31 °F 42 °F 69 °F (1986)
Min Temperature 21 °F 23 °F -16 °F (1969)
Degree Days  
Heating Degree Days 39 33  
Month to date heating degree days 1493 1173  
Since 1 July heating degree days 8494 8323  
Cooling Degree Days 0 0  
Month to date cooling degree days 0 0  
Year to date cooling degree days 0 0  
Moisture  
Dew Point 25 °F    
Average Humidity 92    
Maximum Humidity 100    
Minimum Humidity 84    
Precipitation  
Precipitation 0.00 in 0.04 in 0.64 in (1989)
Month to date precipitation 0.98 0.90  
Year to date precipitation 1.77 1.97  
Snow  
Snow 0.00 in 0.10 in - ()
Month to date snowfall 13.6 6.9  
Since 1 July snowfall 43.5 44.1  
Snow Depth 9.00 in    
Sea Level Pressure  
Sea Level Pressure 30.14 in    
Wind  
Wind Speed 2 mph (SSW)    
Max Wind Speed 9 mph    
Max Gust Speed 12 mph    
T = Trace of Precipitation, MM = Missing Value Source: NWS Daily Summary

Daily Weather History Graph

Daily Weather History Graph

Search for Another Location

Airport or City:

Trip Planner

Search our weather history database for the weather conditions in past years. The results will help you decide how hot, cold, wet, or windy it might be!

Date:

Astronomy

Mar. 29, 2013 Rise Set
Actual Time 7:12 AM CDT 7:54 PM CDT
Civil Twilight 6:41 AM CDT 8:26 PM CDT
Nautical Twilight 6:04 AM CDT 9:03 PM CDT
Astronomical Twilight 5:25 AM CDT 9:42 PM CDT
Moon 11:12 PM CDT (3/29) 8:09 AM CDT (3/29)
Length of Visible Light 13h 44m
Length of Day
12h 42m
Waning Gibbous, 93% of the Moon is Illuminated
Mar 29
Waning Gibbous
Apr 2
Last Quarter
Apr 10
New
Apr 18
First Quarter
Apr 25
Full

Hourly Weather History & Observations

Time (CDT) Temp. Windchill Dew Point Humidity Pressure Visibility Wind Dir Wind Speed Gust Speed Precip Events Conditions
12:53 AM 21.0 °F 13.4 °F 19.0 °F 92% 30.26 in 0.2 mi WSW 5.8 mph - N/A Fog Light Freezing Fog
1:13 AM 21.2 °F 13.6 °F 19.4 °F 93% 30.22 in 0.5 mi WSW 5.8 mph - N/A Fog Light Freezing Fog
1:34 AM 21.2 °F 12.6 °F 19.4 °F 93% 30.21 in 0.5 mi West 6.9 mph - N/A Fog Light Freezing Fog
1:53 AM 21.0 °F 14.6 °F 18.0 °F 88% 30.26 in 0.5 mi West 4.6 mph - N/A Fog Light Freezing Fog
2:00 AM 21.2 °F 14.9 °F 19.4 °F 93% 30.22 in 0.2 mi West 4.6 mph - N/A Fog Light Freezing Fog
2:24 AM 21.2 °F 16.4 °F 19.4 °F 93% 30.21 in 0.2 mi West 3.5 mph - N/A Fog Light Freezing Fog
2:53 AM 23.0 °F - 21.0 °F 92% 30.25 in 0.2 mi Calm Calm - N/A Fog Light Freezing Fog
3:53 AM 24.1 °F - 21.9 °F 91% 30.24 in 0.2 mi Calm Calm - N/A Fog Light Freezing Fog
4:53 AM 23.0 °F - 21.0 °F 92% 30.23 in 0.2 mi Calm Calm - N/A Fog Light Freezing Fog
5:53 AM 24.1 °F - 21.9 °F 91% 30.23 in 0.1 mi Calm Calm - N/A Fog Light Freezing Fog
6:53 AM 25.0 °F - 23.0 °F 92% 30.23 in 0.1 mi Calm Calm - N/A Fog Light Freezing Fog
7:53 AM 25.0 °F - 23.0 °F 92% 30.23 in 0.1 mi Calm Calm - N/A Fog Light Freezing Fog
8:53 AM 25.0 °F - 23.0 °F 92% 30.22 in 0.1 mi Calm Calm - N/A Fog Light Freezing Fog
9:53 AM 25.0 °F - 25.0 °F 100% 30.22 in 0.1 mi Calm Calm - N/A Fog Light Freezing Fog
10:53 AM 25.0 °F 20.7 °F 25.0 °F 100% 30.21 in 0.1 mi SSW 3.5 mph - N/A Fog Light Freezing Fog
11:53 AM 27.0 °F - 26.1 °F 96% 30.20 in 0.1 mi Calm Calm - N/A Fog Light Freezing Fog
12:53 PM 27.0 °F 18.7 °F 26.1 °F 96% 30.19 in 0.2 mi South 8.1 mph - N/A Fog Light Freezing Fog
1:26 PM 28.4 °F 23.3 °F 26.6 °F 93% 30.12 in 0.5 mi SE 4.6 mph - N/A Fog Light Freezing Fog
1:53 PM 28.9 °F 25.2 °F 27.0 °F 92% 30.16 in 0.5 mi South 3.5 mph - N/A Fog Light Freezing Fog
2:53 PM 30.0 °F - 28.0 °F 92% 30.14 in 1.0 mi Calm Calm - N/A   Overcast
3:53 PM 30.0 °F - 28.0 °F 92% 30.12 in 1.0 mi Calm Calm - N/A   Overcast
4:53 PM 30.0 °F 25.2 °F 28.9 °F 96% 30.10 in 1.0 mi South 4.6 mph - N/A   Overcast
5:20 PM 30.2 °F 26.7 °F 28.4 °F 93% 30.04 in 0.8 mi SSE 3.5 mph - N/A   Overcast
5:29 PM 30.2 °F 24.3 °F 28.4 °F 93% 30.05 in 0.2 mi South 5.8 mph - N/A Fog Light Freezing Fog
5:53 PM 30.0 °F 23.2 °F 28.0 °F 92% 30.09 in 0.2 mi SSE 6.9 mph - N/A Fog Light Freezing Fog
6:30 PM 28.4 °F 21.2 °F 28.4 °F 100% 30.03 in 0.2 mi South 6.9 mph - N/A Fog Light Freezing Fog
6:53 PM 28.9 °F 25.2 °F 27.0 °F 92% 30.07 in 0.1 mi South 3.5 mph - N/A Fog Light Freezing Fog
7:53 PM 28.9 °F 25.2 °F 27.0 °F 92% 30.04 in 0.1 mi East 3.5 mph - N/A Fog Light Freezing Fog
8:53 PM 28.9 °F 25.2 °F 28.0 °F 96% 30.05 in 0.1 mi SSW 3.5 mph - N/A Fog Light Freezing Fog
9:53 PM 30.0 °F 21.7 °F 28.0 °F 92% 30.06 in 0.1 mi WSW 9.2 mph - N/A Fog Light Freezing Fog
10:08 PM 30.2 °F 22.6 °F 28.4 °F 93% 30.01 in 0.1 mi WSW 8.1 mph - N/A Fog Light Freezing Fog
10:53 PM 30.0 °F 26.5 °F 28.9 °F 96% 30.04 in 0.1 mi WNW 3.5 mph - N/A Fog Light Freezing Fog
11:37 PM 30.2 °F - 28.4 °F 93% 29.97 in 0.8 mi Calm Calm - N/A   Mist
11:53 PM 30.0 °F - 28.9 °F 96% 30.00 in 0.5 mi Calm Calm - N/A Fog Light Freezing Fog